map of IGR home
Great Circle Mapper logo
IGR - Airport
Location
City:  Iguaçu, Misiones, Argentina
Near (Alt.):Iguazu
Name:Cataratas del Iguaçu
ICAO:SARI
IATA:IGR

Details
Type:Airport (Aerodrome, Airfield)
Use:Public/Civil
Latitude:25°44'14"S (-25.737280)
Longitude:54°28'24"W (-54.473443)
Datum:WGS 1984
Elevation:916 ft (279 m)
Variation:15.98°W (WMM2015 magnetic declination)
-0.17° annual change
Runways:1
Longest:10826 × 148 ft (3300 × 45 m), paved

Time
Time Zone:UTC-3
Local Time:

Weather
METAR:SARI 031000Z 05004KT CAVOK 15/15 Q1020
TAF:SARI 030500Z 0306/0406 16005KT 8000 NSC TX24/0318Z TN11/0309Z PROB30 0307/0310 5000 BR
BECMG 0314/0316 09005KT 9999 SCT025 BKN100

Related Locations
Nearby:
Farthest:SHI: 12364 mi / 19898 km
Shimojishima (Shimojijima, Miyakojima)) [Shimojishima Airport], Shimoji Island, 47, JP

Find:

   beyond  
but within

Other Information
Maps:
NOTAMs:
Links:
Sources:

  
flag of Argentina
flag of Misiones
  

Sectional Chart

Flight Planning
at skyvector.com

Satellite Image

Google Maps Satellite view

 

Copyright © 2004-2016 Karl L. Swartz. All rights reserved.
The Great Circle Mapper name and logo are trademarks of the Great Circle Mapper.
All other trademarks mentioned herein belong to their respective owners.
Please see credits for attibutions and further copyright information.

  Follow gcmap on Facebook Follow gcmap on Twitter Follow gcmap on Google+ GCmap on LinkedIn

hCard Microformat

Geo Microformat